Regional Weather Roundup
Issued by NWS

Current Version | Previous Version | Text Only | Print | Product List | Glossary On
Versions: 1 2 3 4 5 6 7 8 9 10 11 12 13 14 15 16 17 18 19 20 21 22 23 24 25 26 27 28 29 30 31 32 33 34 35 36 37 38 39 40 41 42 43 44 45 46 47 48 49 50
000
ASCA42 TJSJ 010611
RWRPR
PUERTO RICO/U.S. VIRGIN ISLANDS HOURLY WEATHER ROUNDUP
NATIONAL WEATHER SERVICE SAN JUAN PR
200 AM AST FRI AUG 01 2014

PRZ001-004-010700-
PUERTO RICO

CITY           SKY/WX    TMP DP  RH WIND       PRES   REMARKS
SAN JUAN LMM   PTCLDY    79  73  83 E7        29.98F
PONCE          PTCLDY    81  72  74 CALM      29.97F
CEIBA          PTCLDY    81  73  78 E5        30.01F
$$

PRZ006-007-010700-
U.S. VIRGIN ISLANDS

CITY           SKY/WX    TMP DP  RH WIND       PRES   REMARKS
CHARLOTTE AMA  CLOUDY    82  75  78 E6        29.98F
CHRISTIANSTED  PTCLDY    79  73  83 NE5       30.00F
$$

HOURLY WEATHER ROUNDUP FOR THE NEWS MEDIA

CITY           SKY/WX    TMP DP  RH WIND       PRES   REMARKS
MIAMI          MOCLDY    79  75  87 E3        29.99F
ORLANDO        CLEAR     81  73  76 S6        29.97S
NEW YORK       MOCLDY    72  68  87 S10       30.17S
NEWARK         MOCLDY    72  65  78 S6        30.16R
CHICAGO        CLEAR     67  57  70 SW5       30.04S
HARTFORD       MOCLDY    63  62  97 SW5       30.18S
BOSTON         CLEAR     68  61  78 SW10      30.16F
DALLAS         CLOUDY    71  66  84 NE6       30.02F
PHILADELPHIA   CLOUDY    73  67  81 SE5       30.17R


USA.gov is the U.S. government's official web portal to all federal, state and local government web resources and services.